FLOCK 3K-7 (43902 NORAD) Tracking and Keplerian Element Data

This shows tracking and keplerian element data for the satellite.

Feedback or suggestion? Click here.




ElementValue
Catalog43902
NameFLOCK 3K-7
Epoch Orbit22296
Epoch Day358.62898389
Epoch Year2022
RAAN247.4479
Inclination97.1619
Eccentricity0.0012502
Argument of Perigee84.4408
Mean Anonmoly275.8283
Mean Motion15.74101511
Decay Rate0.00497955
L11 43902U 18111AC 22358.62898389 .00497955 00000+0 32893-2 0 9998
L22 43902 97.1619 247.4479 0012502 84.4408 275.8283 15.74101511222960



Live tracking and technical data element details for FLOCK 3K-7 (NORAD 43902). FLOCK 3K-7 can be tracked NOW for your location showing map with azimuth and elevation plus other details from your city location.







IsCatalogInMostPopularTable: catalog: 43902, numindb: 415
Update: records affected: 1



GetName: 43902 FLOCK 3K-7

Hit Count: updated at: Thu, 22 May 2025 02:38:39 GMT